Orbital Elements at Epoch 2459200.5 (2020-Dec-17.0) TDB
Reference: JPL 17 (heliocentric ecliptic J2000)
Element | Value | Uncertainty (1-sigma) | Units |
e | .1602097953238343 | 4.278e-08 | |
a | 3.097721737433241 | 3.1297e-08 | au |
q | 2.601436371908869 | 1.3001e-07 | au |
i | 6.124617694511515 | 5.7205e-06 | deg |
node | 63.55792734471003 | 5.0618e-05 | deg |
peri | 220.9693042375114 | 5.4467e-05 | deg |
M | 128.7739426719944 | 2.0761e-05 | deg |
tp | 2458488.159685383884 (2019-Jan-04.65968538) | 0.00011455 | TDB |
period | 1991.416182037677 5.45 | 3.0179e-05 8.263e-08 | d yr |
n | .1807758735954617 | 2.7396e-09 | deg/d |
Q | 3.594007102957613 | 3.6311e-08 | au |
|
| | Orbit Determination Parameters
Additional Information
|